Home   Weather   Liepāja   Past weeks

Flag for Latvia Past Weather in Liepāja, Latvia — Yesterday and Last 2 Weeks

Now
43 °F

More clouds than sun.


Feels Like: 35 °F
Forecast: 30 / 40 °F
Wind: 16 mph from West

Location: Liepaja International Airport

Current Time: Dec 5, 2016 at 2:40:19 pm

Latest Report: Dec 5, 2016 at 2:20 pm


Visibility: N/A

Pressure: 29.83 "Hg

Humidity: 87%

Dew Point: 39 °F

Location of LiepājaLocation

Past Weather in Liepāja — Graph

°F

Liepāja Temperature Yesterday

Maximum temperature yesterday: 41 °F (at 11:20 pm)
Minimum temperature yesterday: 10 °F (at 4:20 am)
Average temperature yesterday: 26 °F

High & Low Weather Summary for the Past Weeks

 TemperatureHumidityPressure
High50 °F (Nov 21, 11:20 am)100% (Nov 23, 4:50 pm)30.27 "Hg (Nov 23, 4:50 pm)
Low10 °F (Dec 4, 4:20 am)56% (Nov 28, 1:50 pm)29.39 "Hg (Nov 26, 7:20 pm)
Average38 °F86%29.90 "Hg
* Reported Nov 20 1:20 pm — Dec 5 1:20 pm, Liepāja, Weather by CustomWeather, © 2016

Note: Actual official high and low records may vary slightly from our data, if they occured in-between our weather recording intervals... More about our weather records

Advertising

Liepāja Weather History for the Previous 24 Hours

Scroll right to see more
 ConditionsComfort  
Time TempWeatherWind HumidityBarometerVisibility
1:20 pm
Mon, Dec 5
43 °FPartly sunny.18 mph87%29.86 "HgN/A
12:50 pm43 °FPartly sunny.18 mph87%29.86 "HgN/A
12:20 pm43 °FPartly sunny.18 mph87%29.86 "HgN/A
11:50 am43 °FMostly cloudy.21 mph87%29.86 "HgN/A
11:20 am43 °FPartly sunny.22 mph87%29.89 "HgN/A
10:50 am43 °FMostly cloudy.20 mph87%29.89 "HgN/A
10:20 am43 °FOvercast.22 mph87%29.89 "HgN/A
9:50 am43 °FOvercast.22 mph87%29.89 "HgN/A
9:20 am43 °FOvercast.22 mph87%29.89 "HgN/A
8:50 am43 °FOvercast.22 mph87%29.92 "HgN/A
8:20 am43 °FOvercast.21 mph87%29.92 "HgN/A
7:50 am43 °FOvercast.21 mph87%29.92 "HgN/A
7:20 am43 °FOvercast.21 mph87%29.95 "HgN/A
6:50 am43 °FOvercast.20 mph87%29.95 "HgN/A
6:20 am43 °FOvercast.21 mph87%29.95 "HgN/A
5:50 am41 °FOvercast.20 mph93%29.98 "HgN/A
5:20 am43 °FMostly cloudy.18 mph87%29.98 "HgN/A
4:50 am41 °FMostly cloudy.17 mph93%29.98 "HgN/A
4:20 am41 °FOvercast.16 mph93%30.01 "HgN/A
3:50 am41 °FOvercast.16 mph93%30.01 "HgN/A
3:20 am41 °FOvercast.17 mph87%30.01 "HgN/A
2:50 am41 °FOvercast.21 mph87%30.01 "HgN/A
2:20 am41 °FOvercast.20 mph87%30.04 "HgN/A
1:50 am41 °FOvercast.17 mph87%30.04 "HgN/A
1:20 am41 °FOvercast.18 mph87%30.07 "HgN/A
12:50 am41 °FOvercast.17 mph87%30.07 "HgN/A
12:20 am41 °FOvercast.16 mph87%30.07 "HgN/A
11:50 pm
Sun, Dec 4
39 °FLow clouds.18 mph93%30.09 "HgN/A
11:20 pm41 °FMostly cloudy.20 mph93%30.09 "HgN/A
10:50 pm39 °FMostly cloudy.14 mph100%30.09 "HgN/A
10:20 pm39 °FMostly cloudy.15 mph93%30.09 "HgN/A
9:50 pm39 °FOvercast.12 mph87%30.12 "HgN/A
9:20 pm39 °FOvercast.16 mph87%30.12 "HgN/A
8:50 pm39 °FMostly cloudy.13 mph87%30.15 "HgN/A
8:20 pm39 °FOvercast.14 mph87%30.15 "HgN/A
7:50 pm39 °FPassing clouds.12 mph87%30.15 "HgN/A
7:20 pm39 °FOvercast.14 mph87%30.15 "HgN/A
6:50 pm37 °FMostly cloudy.12 mph87%30.15 "HgN/A
6:20 pm37 °FMostly cloudy.10 mph87%30.18 "HgN/A
5:50 pm37 °FOvercast.12 mph87%30.18 "HgN/A
5:20 pm37 °FOvercast.10 mph87%30.18 "HgN/A
4:50 pm37 °FMostly cloudy.13 mph87%30.21 "HgN/A
4:20 pm34 °FMostly cloudy.7 mph93%30.21 "HgN/A
3:50 pm32 °FMore clouds than sun.6 mph93%30.21 "HgN/A
3:20 pm32 °FMore clouds than sun.5 mph93%30.24 "HgN/A
2:50 pm32 °FMostly cloudy.6 mph93%30.24 "HgN/A
2:20 pm32 °FMore clouds than sun.6 mph93%30.24 "HgN/A
Weather by CustomWeather, © 2016

See weather overviewHow to use our weather pages